�N����,����,�~����,�C��,���x,�C��,����,���ϕ���,�ő�u�ԕ���,�ő厞����,���˗�,�I�_���x,�n�����x,�ő啗���N��,DTYPE
"21/11/02","00:10",0.0,13.6,90.8,1014.2,301.2,0.6,1.7,311.9,0.00,12.2,17.5,"00:00:08",1
"21/11/02","00:20",0.0,13.2,90.9,1014.2,289.3,0.5,1.0,310.4,0.00,11.8,17.5,"00:13:38",1
"21/11/02","00:30",0.0,13.3,91.4,1014.0,294.3,1.1,1.6,312.5,0.00,12.0,17.4,"00:27:08",1
"21/11/02","00:40",0.0,13.4,91.8,1014.5,303.3,1.3,1.7,318.7,0.00,12.1,17.4,"00:35:02",1
"21/11/02","00:50",0.0,13.3,91.9,1014.5,295.7,1.2,1.8,334.3,0.00,12.1,17.2,"00:41:30",1
"21/11/02","01:00",0.0,13.2,92.3,1014.2,305.4,1.3,2.0,319.8,0.00,12.0,17.1,"00:51:08",1
"21/11/02","01:10",0.0,13.1,92.5,1014.2,299.6,1.1,2.2,318.8,0.00,12.0,17.2,"01:08:40",1
"21/11/02","01:20",0.0,13.1,92.8,1014.5,311.2,1.1,2.0,319.7,0.00,12.0,17.2,"01:17:28",1
"21/11/02","01:30",0.0,13.5,93.0,1014.7,327.0,1.5,2.5,312.7,0.00,12.4,17.3,"01:25:58",1
"21/11/02","01:40",0.0,13.7,93.0,1014.5,321.7,1.3,2.4,328.0,0.00,12.6,17.2,"01:33:22",1
"21/11/02","01:50",0.0,13.7,93.1,1014.5,317.6,1.3,2.4,331.7,0.00,12.6,17.2,"01:42:42",1
"21/11/02","02:00",0.0,13.6,93.2,1014.5,324.5,1.1,2.2,315.8,0.00,12.6,17.0,"01:55:22",1
"21/11/02","02:10",0.0,13.5,93.3,1014.2,320.7,1.0,1.8,325.2,0.00,12.5,16.8,"02:00:56",1
"21/11/02","02:20",0.0,13.5,93.4,1014.5,312.1,1.2,2.1,306.8,0.00,12.5,17.1,"02:15:12",1
"21/11/02","02:30",0.0,13.4,93.5,1014.5,297.6,0.5,1.1,316.4,0.00,12.4,16.9,"02:28:56",1
"21/11/02","02:40",0.0,13.3,93.6,1014.5,295.9,0.6,1.2,317.6,0.00,12.3,17.1,"02:38:40",1
"21/11/02","02:50",0.0,13.6,93.6,1014.5,335.2,0.8,1.4,321.1,0.00,12.6,17.1,"02:46:32",1
"21/11/02","03:00",0.0,13.6,93.5,1014.2,333.1,0.8,1.3,340.5,0.00,12.6,17.1,"02:52:00",1
"21/11/02","03:10",0.0,13.5,93.6,1014.5,334.7,1.1,2.1,333.7,0.00,12.5,17.0,"03:08:42",1
"21/11/02","03:20",0.0,13.5,93.6,1014.5,333.4,1.2,2.1,319.9,0.00,12.5,16.8,"03:16:52",1
"21/11/02","03:30",0.0,13.6,93.5,1014.2,329.3,1.3,2.4,340.1,0.00,12.6,17.0,"03:24:50",1
"21/11/02","03:40",0.0,13.6,93.4,1014.7,349.6,1.2,2.1,352.8,0.00,12.6,16.7,"03:39:48",1
"21/11/02","03:50",0.0,13.6,93.2,1014.2,339.7,0.8,1.8,335.6,0.00,12.6,16.8,"03:44:12",1
"21/11/02","04:00",0.0,13.1,93.2,1014.5,281.4,0.5,1.3,322.2,0.00,12.1,16.8,"03:59:48",1
"21/11/02","04:10",0.0,12.7,93.3,1014.5,321.1,1.3,2.0,346.5,0.00,11.7,16.8,"04:07:18",1
"21/11/02","04:20",0.0,13.1,93.4,1014.5,320.1,1.7,2.5,311.1,0.00,12.1,16.7,"04:14:54",1
"21/11/02","04:30",0.0,13.3,93.3,1014.5,326.6,1.6,2.8,331.7,0.00,12.3,16.8,"04:20:32",1
"21/11/02","04:40",0.0,13.1,93.3,1014.2,323.1,1.2,2.1,327.4,0.00,12.1,16.7,"04:38:26",1
"21/11/02","04:50",0.0,12.9,93.3,1014.2,300.4,1.1,1.8,326.2,0.00,11.9,16.6,"04:42:40",1
"21/11/02","05:00",0.0,12.8,93.4,1014.0,295.8,1.2,1.9,322.9,0.00,11.8,16.7,"04:57:08",1
"21/11/02","05:10",0.0,12.8,93.4,1014.2,315.6,1.3,1.8,322.0,0.00,11.8,16.7,"05:08:42",1
"21/11/02","05:20",0.0,13.0,93.6,1014.0,324.2,1.7,4.4,335.7,0.00,12.0,16.5,"05:13:54",1
"21/11/02","05:30",0.0,13.0,93.5,1014.0,303.5,1.3,2.0,336.6,0.00,12.0,16.6,"05:20:52",1
"21/11/02","05:40",0.0,13.1,93.6,1013.8,316.0,1.2,2.6,339.4,0.00,12.1,16.6,"05:38:18",1
"21/11/02","05:50",0.0,13.1,93.6,1014.0,311.6,1.6,2.5,310.4,0.00,12.1,16.6,"05:49:46",1
"21/11/02","06:00",0.0,13.1,93.6,1013.8,300.7,1.5,2.6,325.5,0.00,12.1,16.6,"05:52:46",1
"21/11/02","06:10",0.0,13.0,93.6,1014.0,321.3,1.3,2.1,334.9,0.00,12.0,16.6,"06:02:28",1
"21/11/02","06:20",0.0,12.9,93.7,1013.8,323.0,1.5,2.4,335.8,0.00,12.0,16.4,"06:11:06",1
"21/11/02","06:30",0.0,12.8,93.7,1014.0,329.5,1.7,3.3,334.4,0.00,11.9,16.5,"06:29:36",1
"21/11/02","06:40",0.0,12.7,93.8,1013.8,318.2,1.6,3.2,340.7,0.00,11.8,16.3,"06:31:04",1
"21/11/02","06:50",0.0,12.8,93.9,1013.8,314.4,1.6,2.6,341.8,0.00,11.9,16.3,"06:46:32",1
"21/11/02","07:00",0.0,12.9,93.9,1014.0,304.9,1.3,2.5,324.1,0.00,12.0,16.2,"06:59:50",1
"21/11/02","07:10",0.0,13.0,93.9,1013.8,321.3,1.2,2.6,340.9,0.00,12.1,16.5,"07:00:16",1
"21/11/02","07:20",0.0,13.1,94.0,1013.8,323.8,1.3,3.2,333.6,0.00,12.2,16.4,"07:15:00",1
"21/11/02","07:30",0.0,13.1,93.9,1014.0,313.1,1.2,2.1,320.3,0.00,12.2,16.4,"07:26:36",1
"21/11/02","07:40",0.0,13.2,93.9,1014.0,334.0,1.7,2.7,343.5,0.01,12.3,16.4,"07:35:16",1
"21/11/02","07:50",0.0,13.4,93.8,1014.0,322.5,1.8,3.4,332.5,0.02,12.5,16.3,"07:44:54",1
"21/11/02","08:00",0.0,13.7,93.6,1014.2,310.4,2.1,3.3,315.4,0.04,12.7,16.3,"07:57:22",1
"21/11/02","08:10",0.0,14.3,93.1,1014.2,320.3,2.5,4.2,318.5,0.09,13.2,16.3,"08:09:44",1
"21/11/02","08:20",0.0,14.8,92.4,1014.2,328.0,2.6,5.7,343.2,0.10,13.6,16.3,"08:18:48",1
"21/11/02","08:30",0.0,15.5,91.7,1014.2,323.8,1.5,3.2,337.9,0.14,14.2,16.2,"08:20:16",1
"21/11/02","08:40",0.0,15.9,89.8,1014.7,309.2,1.5,4.4,334.3,0.14,14.3,16.2,"08:39:04",1
"21/11/02","08:50",0.0,16.4,87.8,1014.2,320.5,1.6,3.5,325.7,0.15,14.4,16.2,"08:48:00",1
"21/11/02","09:00",0.0,17.0,85.1,1014.5,316.5,1.7,3.4,325.2,0.15,14.5,16.3,"08:50:32",1
"21/11/02","09:10",0.0,17.2,82.0,1014.0,302.0,1.5,3.3,277.3,0.18,14.1,16.3,"09:03:44",1
"21/11/02","09:20",0.0,17.8,78.5,1014.0,302.7,1.3,3.6,329.3,0.23,14.1,16.2,"09:11:52",1
"21/11/02","09:30",0.0,18.3,75.1,1013.8,264.2,1.2,2.8,237.3,0.26,13.9,16.4,"09:28:32",1
"21/11/02","09:40",0.0,18.8,72.6,1014.0,289.1,1.2,3.1,340.4,0.28,13.8,16.6,"09:38:56",1
"21/11/02","09:50",0.0,19.2,70.3,1014.0,328.5,1.6,3.6,340.3,0.31,13.7,16.3,"09:45:04",1
"21/11/02","10:00",0.0,19.6,68.6,1013.5,290.0,1.0,3.2,249.8,0.33,13.7,16.5,"09:50:16",1
"21/11/02","10:10",0.0,19.7,66.5,1013.0,345.6,2.2,6.6,335.4,0.35,13.3,16.7,"10:06:00",1
"21/11/02","10:20",0.0,19.4,65.9,1013.3,333.2,2.8,5.4,304.1,0.35,12.9,16.5,"10:12:48",1
"21/11/02","10:30",0.0,20.1,64.9,1013.3,8.1,2.0,4.9,346.3,0.40,13.3,16.6,"10:20:08",1
"21/11/02","10:40",0.0,20.0,63.5,1012.8,359.0,2.1,4.3,315.0,0.33,12.9,16.7,"10:34:16",1
"21/11/02","10:50",0.0,20.1,63.3,1012.6,330.9,2.1,4.7,343.2,0.39,13.0,16.8,"10:49:04",1
"21/11/02","11:00",0.0,20.6,61.7,1012.6,340.1,1.6,3.5,293.3,0.38,13.0,16.8,"10:53:12",1
"21/11/02","11:10",0.0,20.6,61.3,1012.1,325.2,1.8,3.6,336.8,0.34,12.9,16.8,"11:06:20",1
"21/11/02","11:20",0.0,21.2,60.1,1012.1,337.4,2.0,3.7,346.4,0.47,13.2,17.0,"11:15:52",1
"21/11/02","11:30",0.0,21.7,59.1,1011.9,302.6,1.7,4.2,322.9,0.50,13.4,17.1,"11:22:32",1
"21/11/02","11:40",0.0,21.2,58.5,1011.6,341.9,2.5,6.0,338.7,0.42,12.8,17.0,"11:34:00",1
"21/11/02","11:50",0.0,20.9,59.8,1011.9,336.4,1.8,6.4,342.9,0.38,12.8,16.9,"11:41:20",1
"21/11/02","12:00",0.0,21.9,56.7,1011.4,343.6,1.3,3.3,248.9,0.49,13.0,17.1,"11:59:12",1
"21/11/02","12:10",0.0,21.6,54.3,1011.4,347.0,1.8,5.1,325.2,0.44,12.0,17.1,"12:08:48",1
"21/11/02","12:20",0.0,21.0,55.6,1010.9,350.3,2.0,4.5,339.9,0.25,11.8,17.4,"12:12:56",1
"21/11/02","12:30",0.0,20.9,53.8,1010.9,347.8,1.8,4.3,345.4,0.24,11.2,17.4,"12:24:48",1
"21/11/02","12:40",0.0,21.5,53.2,1010.4,1.5,1.5,3.2,351.9,0.40,11.6,17.4,"12:34:48",1
"21/11/02","12:50",0.0,21.5,49.9,1010.4,349.4,1.7,4.7,343.8,0.35,10.7,17.5,"12:45:36",1
"21/11/02","13:00",0.0,20.9,53.5,1010.4,338.9,2.2,4.8,357.4,0.22,11.2,17.6,"12:51:20",1
"21/11/02","13:10",0.0,20.2,52.5,1010.4,348.2,2.5,5.4,348.3,0.13,10.2,17.6,"13:00:48",1
"21/11/02","13:20",0.0,20.0,53.4,1010.4,349.3,2.2,5.0,344.9,0.11,10.3,17.6,"13:18:32",1
"21/11/02","13:30",0.0,20.2,55.0,1010.2,331.5,1.6,3.1,332.2,0.15,10.9,17.7,"13:21:52",1
"21/11/02","13:40",0.0,21.1,52.0,1010.2,338.2,2.1,4.1,329.0,0.33,10.9,17.7,"13:33:12",1
"21/11/02","13:50",0.0,21.7,48.2,1010.0,338.8,1.7,3.6,345.5,0.33,10.3,17.7,"13:44:40",1
"21/11/02","14:00",0.0,21.7,46.4,1009.7,310.1,2.1,4.2,333.2,0.31,9.8,17.7,"13:53:44",1
"21/11/02","14:10",0.0,22.0,43.5,1009.7,324.9,1.6,3.7,335.7,0.33,9.1,17.8,"14:04:24",1
"21/11/02","14:20",0.0,21.6,48.3,1009.5,334.4,3.1,6.6,342.3,0.36,10.3,17.8,"14:17:52",1
"21/11/02","14:30",0.0,21.5,48.4,1009.7,357.6,2.5,5.2,351.4,0.34,10.2,17.9,"14:24:48",1
"21/11/02","14:40",0.0,21.1,50.0,1009.7,349.6,2.2,5.2,44.3,0.24,10.3,18.0,"14:37:12",1
"21/11/02","14:50",0.0,20.6,52.2,1009.7,347.8,1.8,4.1,340.2,0.15,10.5,17.9,"14:46:40",1
"21/11/02","15:00",0.0,21.0,49.0,1009.7,1.1,1.6,3.5,1.1,0.20,9.9,18.0,"14:58:32",1
"21/11/02","15:10",0.0,20.4,51.3,1009.7,343.2,1.8,4.4,334.8,0.09,10.1,18.1,"15:00:02",1
"21/11/02","15:20",0.0,19.8,53.7,1009.7,344.9,2.2,5.4,337.7,0.10,10.2,18.0,"15:19:36",1
"21/11/02","15:30",0.0,20.1,53.1,1010.2,333.3,1.8,4.1,348.8,0.14,10.3,18.2,"15:22:56",1
"21/11/02","15:40",0.0,20.3,52.4,1009.7,344.6,1.6,3.6,348.5,0.11,10.3,18.1,"15:34:40",1
"21/11/02","15:50",0.0,20.0,53.0,1010.0,354.2,1.8,5.5,23.1,0.10,10.2,18.2,"15:41:20",1
"21/11/02","16:00",0.0,19.5,53.8,1010.0,340.1,2.8,6.2,32.1,0.09,9.9,18.2,"15:52:16",1
"21/11/02","16:10",0.0,19.4,53.7,1010.2,355.9,2.0,5.0,56.5,0.06,9.8,18.2,"16:02:08",1
"21/11/02","16:20",0.0,19.2,55.2,1010.2,348.4,1.8,4.8,346.6,0.04,10.0,18.0,"16:11:44",1
"21/11/02","16:30",0.0,18.9,55.4,1010.7,347.9,1.8,5.1,342.5,0.03,9.8,18.0,"16:25:04",1
"21/11/02","16:40",0.0,18.7,57.6,1010.4,329.8,1.5,2.5,335.8,0.01,10.2,18.0,"16:32:56",1
"21/11/02","16:50",0.0,18.3,59.2,1010.7,335.1,1.3,2.1,318.0,0.01,10.2,18.2,"16:46:32",1
"21/11/02","17:00",0.0,17.7,61.2,1011.2,334.5,1.3,2.9,337.5,0.00,10.2,17.9,"16:50:40",1
"21/11/02","17:10",0.0,17.2,62.5,1011.2,330.0,1.3,3.1,347.2,0.00,10.0,18.1,"17:01:36",1
"21/11/02","17:20",0.0,16.6,64.1,1010.9,329.8,1.1,2.1,318.9,0.00,9.8,18.2,"17:15:36",1
"21/11/02","17:30",0.0,16.1,65.8,1011.4,331.1,1.0,1.9,337.7,0.00,9.7,18.1,"17:23:20",1
"21/11/02","17:40",0.0,15.6,68.4,1011.2,335.3,1.2,2.1,341.8,0.00,9.8,18.0,"17:33:28",1
"21/11/02","17:50",0.0,14.9,69.9,1010.7,336.5,1.0,1.6,347.5,0.00,9.5,18.1,"17:43:04",1
"21/11/02","18:00",0.0,14.2,71.4,1011.2,326.9,1.0,1.4,323.5,0.00,9.1,17.9,"17:52:08",1
"21/11/02","18:10",0.0,13.9,73.1,1011.4,323.2,1.2,1.8,331.3,0.00,9.2,17.8,"18:02:32",1
"21/11/02","18:20",0.0,13.5,75.1,1011.6,317.7,1.2,1.9,328.8,0.00,9.2,17.9,"18:19:30",1
"21/11/02","18:30",0.0,13.3,76.9,1011.6,316.2,1.1,2.1,325.7,0.00,9.4,17.8,"18:29:28",1
"21/11/02","18:40",0.0,13.3,78.6,1011.6,312.2,1.5,2.8,325.0,0.00,9.7,17.8,"18:32:26",1
"21/11/02","18:50",0.0,13.1,79.4,1011.6,311.7,0.8,2.1,339.7,0.00,9.7,17.6,"18:43:48",1
"21/11/02","19:00",0.0,13.0,80.4,1011.9,294.1,1.2,2.1,341.0,0.00,9.7,17.7,"18:52:08",1
"21/11/02","19:10",0.0,12.8,81.1,1011.6,280.6,1.2,1.9,268.1,0.00,9.7,17.7,"19:08:02",1
"21/11/02","19:20",0.0,12.6,81.9,1011.6,296.9,1.5,2.1,311.0,0.00,9.6,17.7,"19:11:24",1
"21/11/02","19:30",0.0,12.5,82.6,1011.9,287.6,1.3,1.6,266.7,0.00,9.7,17.5,"19:23:04",1
"21/11/02","19:40",0.0,12.3,83.4,1012.1,327.0,1.3,2.0,333.3,0.00,9.6,17.4,"19:34:22",1
"21/11/02","19:50",0.0,11.9,84.1,1011.9,311.7,1.5,2.2,321.4,0.00,9.3,17.3,"19:48:16",1
"21/11/02","20:00",0.0,11.9,84.9,1012.1,309.3,1.5,2.6,317.3,0.00,9.5,17.2,"19:58:30",1
"21/11/02","20:10",0.0,11.9,85.3,1012.3,311.0,1.3,1.9,321.1,0.00,9.6,17.3,"20:04:42",1
"21/11/02","20:20",0.0,11.7,85.8,1012.6,312.8,0.8,1.2,312.8,0.00,9.4,17.3,"20:15:22",1
"21/11/02","20:30",0.0,11.5,86.2,1012.1,312.8,1.2,1.6,323.9,0.00,9.3,17.3,"20:26:28",1
"21/11/02","20:40",0.0,11.2,86.4,1012.3,305.6,1.2,1.4,320.4,0.00,9.1,17.1,"20:30:40",1
"21/11/02","20:50",0.0,10.7,86.8,1012.3,312.0,1.3,2.0,326.4,0.00,8.6,17.3,"20:47:04",1
"21/11/02","21:00",0.0,11.0,87.7,1012.1,297.5,1.6,2.5,314.8,0.00,9.1,17.0,"20:59:20",1
"21/11/02","21:10",0.0,11.2,88.0,1012.1,298.6,1.5,2.7,315.6,0.00,9.3,16.8,"21:00:40",1
"21/11/02","21:20",0.0,11.2,88.5,1012.1,287.6,1.2,1.4,312.2,0.00,9.4,17.1,"21:10:32",1
"21/11/02","21:30",0.0,11.2,88.9,1012.3,303.1,1.2,2.6,315.0,0.00,9.5,17.0,"21:26:58",1
"21/11/02","21:40",0.0,11.1,89.2,1012.1,304.8,1.0,1.9,322.4,0.00,9.4,17.0,"21:32:18",1
"21/11/02","21:50",0.0,10.7,89.6,1012.3,310.1,1.0,1.7,312.9,0.00,9.1,16.7,"21:41:28",1
"21/11/02","22:00",0.0,10.4,89.8,1011.9,311.1,1.0,2.0,319.3,0.00,8.8,16.9,"21:53:36",1
"21/11/02","22:10",0.0,10.1,90.2,1012.3,302.6,1.3,2.2,329.3,0.00,8.6,16.7,"22:06:00",1
"21/11/02","22:20",0.0,10.0,90.6,1011.9,285.8,1.1,1.6,303.8,0.00,8.6,16.8,"22:11:04",1
"21/11/02","22:30",0.0,10.4,90.9,1012.1,306.4,1.7,2.2,313.0,0.00,9.0,16.7,"22:26:24",1
"21/11/02","22:40",0.0,10.6,91.2,1012.1,307.3,1.3,2.7,337.6,0.00,9.3,16.7,"22:35:04",1
"21/11/02","22:50",0.0,10.7,91.5,1011.9,313.7,1.6,2.5,328.3,0.00,9.4,16.7,"22:42:40",1
"21/11/02","23:00",0.0,10.5,91.7,1012.1,313.7,1.3,2.2,317.6,0.00,9.2,16.5,"22:53:28",1
"21/11/02","23:10",0.0,10.4,92.0,1011.9,309.9,1.5,2.1,324.3,0.00,9.2,16.4,"23:05:28",1
"21/11/02","23:20",0.0,10.1,92.3,1012.1,290.6,1.0,1.9,316.8,0.00,8.9,16.4,"23:16:56",1
"21/11/02","23:30",0.0,10.2,92.6,1011.9,283.7,0.6,1.3,312.4,0.00,9.1,16.6,"23:25:12",1
"21/11/02","23:40",0.0,10.5,92.8,1011.9,300.0,0.7,1.4,318.6,0.00,9.4,16.3,"23:32:00",1
"21/11/02","23:50",0.0,10.8,92.8,1011.6,295.6,1.2,2.4,311.6,0.00,9.7,16.3,"23:46:24",1
"21/11/02","24:00",0.0,10.9,92.9,1011.9,311.5,1.5,2.1,306.8,0.00,9.8,16.2,"23:55:12",1
